This demonstration page uses our WeatherBlox Daily Observations layout. Learn more.

41.55636, -103.73856

Hourly Observations for December 13, 2015

Temp ( °F °C ) Dew Point ( °F °C ) Humidity (%) Winds ( mph kmh ) Pressure ( in mb ) Visibility ( mi km ) Precip ( " mm )
12:41 am 00:41 Clear with Mist and Fog 28 -2 27 -3 93 93 WSW 5 7 30.03 1017 1.25 2.01168 0 0
12:46 am 00:46 Mostly Cloudy with Freezing Fog 25 -4 25 -4 100 100 SW 6 9 30.09 1019 0.5 0.804672 0 0
12:53 am 00:53 Mostly Cloudy with Freezing Fog 27 -3 25 -4 93 93 SSW 5 7 30.06 1018 0.25 0.402336 0 0
1:44 am 01:44 Mostly Cloudy with Freezing Fog 19 -7 18 -8 93 93 NNW 6 9 30.12 1020 0.5 0.804672 0 0
1:51 am 01:51 Mostly Cloudy with Freezing Fog 21 -6 19 -7 93 93 N 7 11 30.09 1019 0.25 0.402336 0 0
1:53 am 01:53 Mostly Cloudy with Freezing Fog 21 -6 19 -7 93 93 N 8 13 30.09 1019 0.25 0.402336 0 0
2:03 am 02:03 Mostly Cloudy with Mist and Fog 21 -6 19 -7 93 93 N 9 15 30.09 1019 1 1.609344 0 0
2:19 am 02:19 Mostly Cloudy with Mist and Fog 23 -5 21 -6 93 93 N 7 11 30.09 1019 0.75 1.207008 0 0
2:53 am 02:53 Mostly Cloudy with Freezing Fog 27 -3 25 -4 93 93 NNW 6 9 30.03 1017 0.5 0.804672 0 0
3:53 am 03:53 Cloudy with Mist and Fog 28 -2 27 -3 93 93 NNW 5 7 29.97 1015 1.25 2.01168 0 0
3:59 am 03:59 Cloudy with Mist and Fog 28 -2 27 -3 93 93 N 7 11 29.97 1015 3 4.828032 0 0
4:29 am 04:29 Cloudy with Mist and Fog 28 -2 27 -3 93 93 NW 9 15 29.94 1014 1.75 2.816352 0 0
4:53 am 04:53 Mostly Cloudy with Mist and Fog 28 -2 28 -2 100 100 NW 9 15 29.94 1014 1 1.609344 0 0
5:01 am 05:01 Mostly Cloudy with Freezing Fog 28 -2 27 -3 93 93 W 6 9 29.94 1014 0.5 0.804672 0 0
5:29 am 05:29 Mostly Cloudy with Freezing Fog 28 -2 27 -3 93 93 W 8 13 29.94 1014 0.25 0.402336 0 0
5:53 am 05:53 Mostly Cloudy with Freezing Fog 28 -2 27 -3 93 93 WSW 3 6 29.97 1015 0.25 0.402336 0 0
6:22 am 06:22 Mostly Cloudy with Freezing Fog 28 -2 27 -3 93 93 NW 7 11 29.94 1014 0.5 0.804672 0 0
6:53 am 06:53 Mostly Cloudy with Freezing Fog 28 -2 25 -4 86 86 S 5 7 29.97 1015 0.5 0.804672 0 0
7:14 am 07:14 Mostly Cloudy with Freezing Fog 27 -3 27 -3 100 100 S 3 6 29.97 1015 0.25 0.402336 0 0
7:53 am 07:53 Mostly Cloudy with Freezing Fog 27 -3 25 -4 93 93 NNW 3 6 29.94 1014 0.25 0.402336 0 0
8:41 am 08:41 Mostly Cloudy with Freezing Fog 25 -4 25 -4 100 100 NNW 6 9 29.97 1015 0.25 0.402336 0 0
8:53 am 08:53 Mostly Cloudy with Freezing Fog 25 -4 23 -5 93 93 Calm 29.97 1015 0.5 0.804672 0 0
9:08 am 09:08 Mostly Cloudy with Mist and Fog 25 -4 25 -4 100 100 Calm 29.97 1015 2.5 4.02336 0 0
9:12 am 09:12 Partly Cloudy 25 -4 25 -4 100 100 Calm 29.97 1015 9 14.484096 0 0
9:53 am 09:53 Sunny 27 -3 23 -5 86 86 NNW 6 9 29.91 1013 10 16.09344 0 0
10:53 am 10:53 Sunny 28 -2 23 -5 80 80 NW 8 13 29.85 1011 10 16.09344 0 0
11:53 am 11:53 Sunny 30 -1 25 -4 80 80 NW 10 17 29.83 1010 10 16.09344 0 0
12:53 pm 12:53 Sunny 32 0 27 -3 80 80 NW 10 17 29.8 1009 10 16.09344 0 0
1:53 pm 13:53 Sunny 36 2 28 -2 75 75 WNW 6 9 29.77 1008 10 16.09344 0 0
2:53 pm 14:53 Sunny 37 3 30 -1 75 75 NW 6 9 29.71 1006 10 16.09344 0 0
3:53 pm 15:53 Sunny 30 -1 27 -3 86 86 SE 6 9 29.74 1007 10 16.09344 0 0
4:53 pm 16:53 Clear 27 -3 25 -4 93 93 E 8 13 29.77 1008 9 14.484096 0 0
5:53 pm 17:53 Clear 25 -4 21 -6 86 86 E 7 11 29.8 1009 10 16.09344 0 0
6:53 pm 18:53 Clear 21 -6 19 -7 93 93 Calm 29.83 1010 10 16.09344 0 0
7:53 pm 19:53 Clear 21 -6 19 -7 93 93 SSE 3 6 29.83 1010 10 16.09344 0 0
8:36 pm 20:36 Clear with Mist and Fog 19 -7 18 -8 93 93 W 3 6 29.83 1010 1.75 2.816352 0 0
8:49 pm 20:49 Clear with Mist and Fog 19 -7 16 -9 86 86 NNW 3 6 29.83 1010 3 4.828032 0 0
8:53 pm 20:53 Clear with Mist and Fog 19 -7 16 -9 86 86 N 5 7 29.83 1010 5 8.04672 0 0
9:53 pm 21:53 Clear 19 -7 18 -8 93 93 W 3 6 29.77 1008 8 12.874752 0 0
10:53 pm 22:53 Clear 19 -7 18 -8 93 93 Calm 29.77 1008 10 16.09344 0 0
11:53 pm 23:53 Clear 19 -7 16 -9 86 86 N 3 6 29.77 1008 10 16.09344 0 0

Powered by AerisWeather